Zurück zum Katalog

ARIANE 42P+ DEB

AktivHEO
NORAD 34198·DEBRIS·🇫🇷 France

Gestartet Oct 28, 1992 von Guiana Space Centre

Loading…

Nächste Überflüge (nächste 24 Stunden)

TLE

AktuellSource: Space-Track

Epoche: Sep 13, 2026, 18:19 UTC

1 34198U 92072AE  26256.76363795  .00001590  00000-0  11661-1 0  9993
2 34198   8.6790 122.3618 6540912 119.1265  58.8347  3.04690727291704

Verfolge ARIANE 42P+ DEB in Echtzeit mit AllMySat

Download on the App Store